Location: El Álamo
(40.2307°N, 3.9945°W)
Time: 04:42:24
(UTC+00:00)

Cosmos 2327 Rocket - Pass Details

Date: 19 May 2025
Orbit: 942 x 1008 km, 83.0° (Epoch: 23 June)

Event Time Altitude Azimuth Distance (km) Brightness Sun altitude
Rises 21:19:10 0° 353° (N) 3,648 8.4 -17.5°
Reaches altitude 10° 21:21:41 10° 354° (N) 2,690 7.6 -17.9°
Maximum altitude 21:27:50 83° 83° (E) 959 4.4 -18.6°
Enters shadow 21:31:16 28° 169° (S) 1,698 5.3 -19.1°
